TimeEST,TemperatureF,Dew PointF,Humidity,Sea Level PressureIn,VisibilityMPH,Wind Direction,Wind SpeedMPH,Gust SpeedMPH,PrecipitationIn,Events,Conditions,WindDirDegrees,DateUTC
12:53 AM,41.0,39.9,96,30.20,10.0,ENE,5.8,-,0.00,Rain,Light Rain,70,2013-02-23 05:53:00
1:53 AM,41.0,41.0,100,30.17,10.0,ENE,5.8,-,0.00,,Overcast,70,2013-02-23 06:53:00
2:26 AM,42.8,42.8,100,30.16,10.0,East,4.6,-,N/A,,Overcast,90,2013-02-23 07:26:00
2:53 AM,42.1,42.1,100,30.14,9.0,Calm,Calm,-,N/A,,Overcast,0,2013-02-23 07:53:00
3:53 AM,42.1,42.1,100,30.13,8.0,East,3.5,-,0.02,Rain,Light Rain,100,2013-02-23 08:53:00
4:22 AM,42.8,42.8,100,30.11,3.0,East,4.6,-,0.02,Rain,Light Rain,90,2013-02-23 09:22:00
4:38 AM,42.8,42.8,100,30.10,6.0,East,4.6,-,0.02,Rain,Light Rain,80,2013-02-23 09:38:00
4:53 AM,43.0,43.0,100,30.10,4.0,East,6.9,-,0.03,Rain,Light Rain,100,2013-02-23 09:53:00
5:01 AM,42.8,42.8,100,30.09,2.5,ESE,6.9,-,0.01,Rain,Light Rain,110,2013-02-23 10:01:00
5:05 AM,42.8,42.8,100,30.09,2.5,East,8.1,-,0.01,Rain,Light Rain,100,2013-02-23 10:05:00
5:12 AM,42.8,42.8,100,30.08,3.0,East,8.1,-,0.01,Rain,Light Rain,100,2013-02-23 10:12:00
5:23 AM,42.8,42.8,100,30.09,2.5,East,6.9,-,0.01,,Overcast,100,2013-02-23 10:23:00
5:32 AM,42.8,42.8,100,30.09,3.0,East,9.2,-,0.01,,Overcast,100,2013-02-23 10:32:00
5:45 AM,42.8,42.8,100,30.08,2.5,ESE,9.2,-,0.02,,Overcast,110,2013-02-23 10:45:00
5:53 AM,43.0,43.0,100,30.08,2.5,ESE,8.1,-,0.02,,Overcast,110,2013-02-23 10:53:00
6:53 AM,43.0,-9999,N/A,30.07,2.5,East,6.9,-,0.02,Rain,Light Rain,90,2013-02-23 11:53:00
7:14 AM,42.8,-9999,N/A,30.06,1.2,ENE,9.2,-,0.01,Rain,Light Rain,70,2013-02-23 12:14:00
7:53 AM,44.1,44.1,100,30.05,1.2,ENE,9.2,-,0.04,Rain,Light Rain,70,2013-02-23 12:53:00
8:11 AM,44.6,44.6,100,30.05,2.0,ENE,9.2,-,0.03,Rain,Light Rain,60,2013-02-23 13:11:00
8:53 AM,45.0,45.0,100,30.05,3.0,ENE,6.9,-,0.14,Rain,Light Rain,70,2013-02-23 13:53:00
9:03 AM,44.6,44.6,100,30.02,2.0,East,11.5,-,0.03,Rain,Rain,100,2013-02-23 14:03:00
9:10 AM,44.6,44.6,100,30.01,3.0,East,10.4,-,0.04,Rain,Light Rain,100,2013-02-23 14:10:00
9:23 AM,44.6,44.6,100,30.00,4.0,East,9.2,-,0.04,Rain,Light Rain,100,2013-02-23 14:23:00
9:42 AM,44.6,44.6,100,29.99,5.0,ESE,12.7,19.6,0.05,,Overcast,110,2013-02-23 14:42:00
9:53 AM,45.0,45.0,100,29.99,3.0,ESE,12.7,18.4,0.06,Rain,Light Rain,110,2013-02-23 14:53:00
10:25 AM,44.6,-9999,N/A,29.97,4.0,East,10.4,-,0.03,Rain,Light Rain,100,2013-02-23 15:25:00
10:53 AM,45.0,45.0,100,29.94,4.0,ESE,11.5,-,0.05,Rain,Light Rain,110,2013-02-23 15:53:00
11:09 AM,46.4,46.4,100,29.93,5.0,ESE,16.1,21.9,0.01,Rain,Light Rain,120,2013-02-23 16:09:00
11:46 AM,46.4,46.4,100,29.92,4.0,East,8.1,-,0.02,Rain,Light Rain,90,2013-02-23 16:46:00
11:53 AM,46.0,46.0,100,29.91,4.0,East,8.1,-,0.02,Rain,Light Rain,100,2013-02-23 16:53:00
12:53 PM,46.0,46.0,100,29.85,3.0,East,10.4,-,0.02,Rain,Light Rain,100,2013-02-23 17:53:00
7:29 PM,46.4,46.4,100,29.80,1.8,North,6.9,-,N/A,,Overcast,350,2013-02-24 00:29:00
7:49 PM,46.4,46.4,100,29.80,2.5,North,8.1,-,N/A,,Overcast,350,2013-02-24 00:49:00
7:53 PM,46.9,46.9,100,29.80,2.5,North,6.9,-,N/A,,Overcast,350,2013-02-24 00:53:00
8:12 PM,46.4,46.4,100,29.78,1.5,North,8.1,-,N/A,,Overcast,360,2013-02-24 01:12:00
8:53 PM,46.0,46.0,100,29.78,1.2,North,4.6,-,N/A,,Overcast,360,2013-02-24 01:53:00
9:30 PM,46.4,46.4,100,29.78,0.8,North,5.8,-,N/A,,Overcast,350,2013-02-24 02:30:00
10:10 PM,46.4,46.4,100,29.77,1.0,North,3.5,-,N/A,,Overcast,350,2013-02-24 03:10:00
10:53 PM,46.0,46.0,100,29.77,1.5,NNW,4.6,-,N/A,,Overcast,330,2013-02-24 03:53:00
11:53 PM,46.0,46.0,100,29.77,1.8,North,3.5,-,N/A,,Overcast,360,2013-02-24 04:53:00